"Pseudo-MPEC" for A107wcb

Created 2018 Jul 17 10:18:02 UT using Find_Orb

Click here for an explanation of pseudo-MPECs

 
 Astrometry: 
     A107wcb  C2018 07 06#%Astrometryls[j5y#=2xaHGsdWXS?a=xLd!RiHL$8Bm:Aq1u)0T05
     A107wcb  C2018 07 066+1%Ot](9yEkKdF#Sredacted;n)X`KKUFvfBZP2e;ODj#\sp[raT05
     A107wcb  C2018 07 06`\a=j0GJL'YM$FI^P[#ldH6g*/]?\x%:seeBbJCdNJF.wJ.b^[e*T05
     A107wcb  C2018 07 06FgAgq*Kjf#o+=lGAi2p9XXj\fjDJc/QPmZrGGvp,mbSi,?9NEOCPT05

Station data:
(T05) ATLAS-HKO, Haleakala  (N20.707573 W156.257010)  US/Hawaii.  Observers
   L. Denneau, A. Heinze, H. Weiland, B. Stalder, J. Tonry, A. Sherstyuk.
   Measurers L. Denneau, A. Heinze, J. Tonry. 0.5-m f/2.0 Schmidt + CCD.

Orbital elements:  A107wcb
   Perihelion 2018 Aug 14.606642 +/- 38.4 TT = 14:33:33 (JD 2458345.106642)
Epoch 2018 Jul  6.0 TT = JDT 2458305.5   Earth MOID: 0.0081   AutoNEOCP
M 325.05305 +/- 19                  (J2000 ecliptic)
n   0.88235053 +/- 0.39             Peri.  217.17850 +/- 54
a   1.07656919 +/- 0.317            Node   105.31167 +/- 0.51
e   0.0545926 +/- 0.257             Incl.    1.23858 +/- 4.3
P   1.12/407.99d           H 27.8   G  0.15   U 12.1  SR
q 1.01779638 +/- 0.208    Q 1.13534199 +/- 52.4
From 4 observations 2018 July 6 (42.5 min); mean residual 0".40
Residuals in arcseconds: 
180706 T05  .07+  .13-    180706 T05  .44+  .58+    
180706 T05  .26-  .26+    180706 T05  .26-  .71-    

Ephemerides (geocentric):
Date (UTC) HH   RA              Dec         delta   r     elong  mag " sig PA
---- -- -- --  -------------   -----------  ------ ------ -----  --- ---- ---
2018 07 17 10  22 41 39.789   -33 25 28.84  .00924 1.0234 139.4 19.2  56d 163
2018 07 17 11  22 42 37.274   -33 26 49.75  .00923 1.0234 139.2 19.3  56d 163
2018 07 17 12  22 43 34.793   -33 28 08.99  .00923 1.0234 139.1 19.3  56d 163
2018 07 17 13  22 44 32.345   -33 29 26.53  .00923 1.0233 138.9 19.3  56d 163
2018 07 17 14  22 45 29.927   -33 30 42.38  .00923 1.0233 138.7 19.3  56d 163
2018 07 17 15  22 46 27.537   -33 31 56.53  .00923 1.0233 138.6 19.3  56d 163
2018 07 17 16  22 47 25.174   -33 33 08.99  .00923 1.0233 138.4 19.3  56d 163
2018 07 17 17  22 48 22.835   -33 34 19.74  .00923 1.0232 138.2 19.3  56d 163
2018 07 17 18  22 49 20.520   -33 35 28.78  .00923 1.0232 138.1 19.3  56d 163
2018 07 17 19  22 50 18.225   -33 36 36.11  .00923 1.0232 137.9 19.3  56d 163
2018 07 17 20  22 51 15.950   -33 37 41.73  .00923 1.0232 137.7 19.3  56d 163
2018 07 17 21  22 52 13.692   -33 38 45.63  .00923 1.0232 137.5 19.3  56d 163
2018 07 17 22  22 53 11.450   -33 39 47.81  .00923 1.0231 137.4 19.3  56d 163
2018 07 17 23  22 54 09.221   -33 40 48.27  .00923 1.0231 137.2 19.3  56d 163
2018 07 18 00  22 55 07.004   -33 41 47.00  .00923 1.0231 137.0 19.3  56d 163
2018 07 18 01  22 56 04.797   -33 42 44.01  .00923 1.0231 136.9 19.3  56d 163
2018 07 18 02  22 57 02.598   -33 43 39.28  .00923 1.0231 136.7 19.3  56d 163
2018 07 18 03  22 58 00.405   -33 44 32.83  .00923 1.0230 136.5 19.3  56d 163
2018 07 18 04  22 58 58.216   -33 45 24.65  .00923 1.0230 136.4 19.3  56d 163
2018 07 18 05  22 59 56.030   -33 46 14.73  .00923 1.0230 136.2 19.3  56d 162
2018 07 18 06  23 00 53.844   -33 47 03.07  .00923 1.0230 136.0 19.3  56d 162
2018 07 18 07  23 01 51.657   -33 47 49.69  .00923 1.0230 135.9 19.3  56d 162
2018 07 18 08  23 02 49.467   -33 48 34.56  .00923 1.0229 135.7 19.3  56d 162
2018 07 18 09  23 03 47.271   -33 49 17.70  .00923 1.0229 135.5 19.4  56d 162
2018 07 18 10  23 04 45.069   -33 49 59.10  .00923 1.0229 135.3 19.4  56d 162
2018 07 18 11  23 05 42.857   -33 50 38.77  .00923 1.0229 135.2 19.4  56d 162
2018 07 18 12  23 06 40.635   -33 51 16.70  .00924 1.0228 135.0 19.4  56d 162
2018 07 18 13  23 07 38.400   -33 51 52.89  .00924 1.0228 134.8 19.4  56d 162
2018 07 18 14  23 08 36.151   -33 52 27.34  .00924 1.0228 134.7 19.4  56d 162
2018 07 18 15  23 09 33.886   -33 53 00.06  .00924 1.0228 134.5 19.4  56d 162
2018 07 18 16  23 10 31.602   -33 53 31.05  .00924 1.0228 134.3 19.4  56d 162
2018 07 18 17  23 11 29.298   -33 54 00.30  .00924 1.0227 134.2 19.4  56d 162
2018 07 18 18  23 12 26.973   -33 54 27.81  .00925 1.0227 134.0 19.4  56d 162
2018 07 18 19  23 13 24.623   -33 54 53.60  .00925 1.0227 133.8 19.4  56d 162
2018 07 18 20  23 14 22.248   -33 55 17.66  .00925 1.0227 133.7 19.4  56d 162
2018 07 18 21  23 15 19.846   -33 55 39.99  .00925 1.0227 133.5 19.4  56d 162
2018 07 18 22  23 16 17.414   -33 56 00.60  .00925 1.0226 133.3 19.4  56d 162
2018 07 18 23  23 17 14.952   -33 56 19.48  .00926 1.0226 133.2 19.4  56d 162
2018 07 19 00  23 18 12.456   -33 56 36.64  .00926 1.0226 133.0 19.4  56d 162
2018 07 19 01  23 19 09.926   -33 56 52.08  .00926 1.0226 132.8 19.4  56d 162
2018 07 19 02  23 20 07.359   -33 57 05.81  .00926 1.0226 132.7 19.4  56d 162
2018 07 19 03  23 21 04.755   -33 57 17.83  .00927 1.0225 132.5 19.4  56d 162
2018 07 19 04  23 22 02.110   -33 57 28.14  .00927 1.0225 132.3 19.4  56d 162
2018 07 19 05  23 22 59.423   -33 57 36.74  .00927 1.0225 132.2 19.5  56d 162
2018 07 19 06  23 23 56.692   -33 57 43.64  .00928 1.0225 132.0 19.5  56d 162
2018 07 19 07  23 24 53.916   -33 57 48.84  .00928 1.0224 131.8 19.5  56d 162
2018 07 19 08  23 25 51.094   -33 57 52.34  .00928 1.0224 131.7 19.5  56d 162
2018 07 19 09  23 26 48.222   -33 57 54.16  .00929 1.0224 131.5 19.5  56d 162